Flag for China Weather past 2 weeks in Dalian, China

Now
54 °F

Sunny.


Feels Like: 52 °F
Forecast: 46 / 59 °F
Wind: 6 mph from Southeast

Location: Dalian Airport


UV Index: 5 (Moderate)

Visibility: 10 mi


Pressure: 30.07 "Hg

Humidity: 58%

Dew point: 39 °F

Location of DalianLocation

Historic Weather in Dalian

°F

Dalian temperature yesterday

Maximum temperature yesterday: 63 °F (at 10:30 AM)
Minimum temperature yesterday: 48 °F (at 4:30 AM)
Average temperature yesterday: 57 °F

Past Weeks' High & Low Weather Summary

 TemperatureHumidityPressure
High73 °F (Apr 14, 12:30 PM)100% (Apr 8, 11:00 PM)30.21 "Hg (Apr 8, 11:00 PM)
Low39 °F (Apr 5, 3:30 AM)12% (Apr 6, 2:00 PM)29.89 "Hg (Apr 4, 5:00 PM)
Average54 °F54%30.04 "Hg
* Reported Apr 4 5:00 PM — Apr 19 5:00 PM, Dalian, Weather by CustomWeather, © 2014

Note: Actual official high and low records may vary slightly from our data, if they occured in-between our weather recording intervals... More about our weather records

Advertising

Historic Weather Conditions — Data for Previous 24 hours

 ConditionsComfort  
Time TempWeatherWind HumidityBarometerVisibility
5:00 PM
Apr 19
54 °FSunny.8 mph58%30.07 "Hg10 mi
4:30 PM55 °FSunny.10 mph55%30.07 "Hg10 mi
4:00 PM55 °FSunny.10 mph55%30.07 "Hg10 mi
3:30 PM57 °FPassing clouds.10 mph51%30.07 "HgN/A
3:00 PM59 °FSunny.13 mph45%30.07 "Hg10 mi
2:30 PM59 °FSunny.15 mph42%30.07 "Hg10 mi
2:00 PM61 °FPassing clouds.13 mph34%30.09 "HgN/A
1:30 PM63 °FSunny.15 mph27%30.09 "Hg10 mi
1:00 PM63 °FSunny.15 mph27%30.07 "Hg10 mi
12:30 PM63 °FSunny.13 mph25%30.07 "Hg10 mi
12:00 PM64 °FPassing clouds.10 mph24%30.09 "HgN/A
11:30 AM64 °FPassing clouds.10 mph24%30.07 "HgN/A
11:00 AM64 °FSunny.10 mph26%30.09 "Hg10 mi
10:30 AM63 °FSunny.10 mph25%30.12 "Hg10 mi
10:00 AM64 °FPassing clouds.10 mph22%30.12 "HgN/A
9:30 AM63 °FPassing clouds.6 mph22%30.12 "HgN/A
9:00 AM61 °FSunny.1 mph25%30.12 "Hg10 mi
8:30 AM59 °FPassing clouds.3 mph34%30.12 "HgN/A
8:00 AM59 °FPassing clouds.6 mph27%30.15 "HgN/A
7:30 AM57 °FPassing clouds.3 mph33%30.12 "HgN/A
7:00 AM55 °FSunny.6 mph41%30.12 "Hg10 mi
6:30 AM54 °FSunny.6 mph44%30.12 "Hg10 mi
6:00 AM52 °FSunny.6 mph50%30.12 "Hg10 mi
5:30 AM52 °FSunny.3 mph50%30.09 "Hg10 mi
5:00 AM52 °FClear.6 mph54%30.09 "Hg10 mi
4:30 AM52 °FPassing clouds.3 mph54%30.09 "HgN/A
4:00 AM52 °FClear.3 mph47%30.09 "Hg10 mi
3:30 AM54 °FPassing clouds.3 mph30%30.12 "HgN/A
3:00 AM54 °FPassing clouds.3 mph30%30.09 "HgN/A
2:30 AM55 °FClear.1 mph28%30.12 "Hg10 mi
2:00 AM55 °FClear.6 mph28%30.09 "Hg10 mi
1:30 AM55 °FPassing clouds.6 mph28%30.09 "HgN/A
1:00 AM55 °FClear.6 mph28%30.12 "Hg10 mi
12:30 AM57 °FPassing clouds.6 mph27%30.12 "HgN/A
12:00 AM57 °FClear.6 mph29%30.12 "Hg10 mi
11:30 PM
Apr 18
57 °FPassing clouds.6 mph27%30.12 "HgN/A
11:00 PM57 °FPassing clouds.8 mph29%30.12 "HgN/A
10:30 PM57 °FClear.8 mph29%30.12 "Hg10 mi
10:00 PM57 °FPassing clouds.8 mph31%30.12 "HgN/A
9:30 PM57 °FPassing clouds.8 mph36%30.12 "HgN/A
9:00 PM57 °FClear.10 mph39%30.12 "Hg10 mi
8:30 PM57 °FPassing clouds.8 mph39%30.12 "HgN/A
8:00 PM57 °FPassing clouds.6 mph39%30.09 "HgN/A
7:30 PM57 °FPassing clouds.8 mph39%30.09 "HgN/A
7:00 PM59 °FPassing clouds.6 mph36%30.09 "HgN/A
6:30 PM59 °FPassing clouds.8 mph34%30.07 "HgN/A
6:00 PM59 °FPassing clouds.10 mph36%30.07 "HgN/A
Weather by CustomWeather, © 2014

See weather overview